Time,TemperatureF,DewpointF,PressureIn,WindDirection,WindDirectionDegrees,WindSpeedMPH,WindSpeedGustMPH,Humidity,HourlyPrecipIn,Conditions,Clouds,dailyrainin,SolarRadiationWatts/m^2,SoftwareType,DateUTC
2013-01-10 00:00:00,39.0,29.0,-100.00,West,271,11.0,24.0,66,0.00,,,-99.99,0.000000,,2013-01-10 08:00:00,
2013-01-10 00:32:00,39.0,29.0,-100.00,West,271,11.0,24.0,66,0.00,,,-99.99,0.000000,,2013-01-10 08:32:00,
2013-01-10 00:42:00,39.0,29.0,-100.00,West,271,11.0,24.0,66,0.00,,,-99.99,0.000000,,2013-01-10 08:42:00,
2013-01-10 00:52:00,39.0,29.0,-100.00,West,271,11.0,24.0,66,0.00,,,-99.99,0.000000,,2013-01-10 08:52:00,
2013-01-10 01:00:00,36.0,34.0,-100.00,West,270,19.0,33.0,91,0.00,,,-99.99,0.000000,,2013-01-10 09:00:00,
2013-01-10 01:32:00,36.0,34.0,-100.00,West,270,19.0,33.0,91,0.00,,,-99.99,0.000000,,2013-01-10 09:32:00,
2013-01-10 01:43:00,36.0,34.0,-100.00,West,270,19.0,33.0,91,0.00,,,-99.99,0.000000,,2013-01-10 09:43:00,
2013-01-10 01:52:00,36.0,34.0,-100.00,West,270,19.0,33.0,91,0.00,,,-99.99,0.000000,,2013-01-10 09:52:00,
2013-01-10 02:00:00,34.0,31.0,-100.00,WNW,301,16.0,44.0,90,0.00,,,-99.99,0.000000,,2013-01-10 10:00:00,
2013-01-10 02:33:00,34.0,31.0,-100.00,WNW,301,16.0,44.0,90,0.00,,,-99.99,0.000000,,2013-01-10 10:33:00,
2013-01-10 02:42:00,34.0,31.0,-100.00,WNW,301,16.0,44.0,90,0.00,,,-99.99,0.000000,,2013-01-10 10:42:00,
2013-01-10 02:52:00,34.0,31.0,-100.00,WNW,301,16.0,44.0,90,0.00,,,-99.99,0.000000,,2013-01-10 10:52:00,
2013-01-10 03:00:00,34.0,29.0,-100.00,West,274,12.0,39.0,81,0.00,,,-99.99,0.000000,,2013-01-10 11:00:00,
2013-01-10 03:23:00,34.0,29.0,-100.00,West,274,12.0,39.0,81,0.00,,,-99.99,0.000000,,2013-01-10 11:23:00,
2013-01-10 03:33:00,34.0,29.0,-100.00,West,274,12.0,39.0,81,0.00,,,-99.99,0.000000,,2013-01-10 11:33:00,
2013-01-10 03:43:00,34.0,29.0,-100.00,West,274,12.0,39.0,81,0.00,,,-99.99,0.000000,,2013-01-10 11:43:00,
2013-01-10 03:53:00,34.0,29.0,-100.00,West,274,12.0,39.0,81,0.00,,,-99.99,0.000000,,2013-01-10 11:53:00,
2013-01-10 06:00:00,28.0,25.0,-100.00,NW,316,10.0,27.0,87,-99.99,,,-99.99,0.000000,,2013-01-10 14:00:00,
2013-01-10 06:22:00,28.0,25.0,-100.00,NW,316,10.0,27.0,87,-99.99,,,-99.99,0.000000,,2013-01-10 14:22:00,
2013-01-10 06:33:00,28.0,25.0,-100.00,NW,316,10.0,27.0,87,-99.99,,,-99.99,0.000000,,2013-01-10 14:33:00,
2013-01-10 06:43:00,28.0,25.0,-100.00,NW,316,10.0,27.0,87,-99.99,,,-99.99,0.000000,,2013-01-10 14:43:00,
2013-01-10 06:53:00,28.0,25.0,-100.00,NW,316,10.0,27.0,87,-99.99,,,-99.99,0.000000,,2013-01-10 14:53:00,
2013-01-10 07:00:00,26.0,19.0,-100.00,West,264,16.0,31.0,75,0.00,,,-99.99,0.000000,,2013-01-10 15:00:00,
2013-01-10 07:33:00,26.0,19.0,-100.00,West,264,16.0,31.0,75,0.00,,,-99.99,0.000000,,2013-01-10 15:33:00,
2013-01-10 07:43:00,26.0,19.0,-100.00,West,264,16.0,31.0,75,0.00,,,-99.99,0.000000,,2013-01-10 15:43:00,
2013-01-10 07:53:00,26.0,19.0,-100.00,West,264,16.0,31.0,75,0.00,,,-99.99,0.000000,,2013-01-10 15:53:00,
2013-01-10 08:00:00,26.0,18.0,-100.00,ESE,121,19.0,37.0,70,0.00,,,-99.99,19.000000,,2013-01-10 16:00:00,
2013-01-10 08:33:00,26.0,18.0,-100.00,ESE,121,19.0,37.0,70,0.00,,,-99.99,19.000000,,2013-01-10 16:33:00,
2013-01-10 08:43:00,26.0,18.0,-100.00,ESE,121,19.0,37.0,70,0.00,,,-99.99,19.000000,,2013-01-10 16:43:00,
2013-01-10 08:53:00,26.0,18.0,-100.00,ESE,121,19.0,37.0,70,0.00,,,-99.99,19.000000,,2013-01-10 16:53:00,
2013-01-10 09:00:00,28.0,18.0,-100.00,WNW,282,15.0,35.0,67,0.00,,,-99.99,100.000000,,2013-01-10 17:00:00,
2013-01-10 09:33:00,28.0,18.0,-100.00,WNW,282,15.0,35.0,67,0.00,,,-99.99,100.000000,,2013-01-10 17:33:00,
2013-01-10 09:43:00,28.0,18.0,-100.00,WNW,282,15.0,35.0,67,0.00,,,-99.99,100.000000,,2013-01-10 17:43:00,
2013-01-10 09:53:00,28.0,18.0,-100.00,WNW,282,15.0,35.0,67,0.00,,,-99.99,100.000000,,2013-01-10 17:53:00,
2013-01-10 10:00:00,29.0,19.0,-100.00,East,97,14.0,39.0,66,0.00,,,-99.99,414.000000,,2013-01-10 18:00:00,
2013-01-10 10:23:00,29.0,19.0,-100.00,East,97,14.0,39.0,66,0.00,,,-99.99,414.000000,,2013-01-10 18:23:00,
2013-01-10 10:33:00,29.0,19.0,-100.00,East,97,14.0,39.0,66,0.00,,,-99.99,414.000000,,2013-01-10 18:33:00,
2013-01-10 10:43:00,29.0,19.0,-100.00,East,97,14.0,39.0,66,0.00,,,-99.99,414.000000,,2013-01-10 18:43:00,
2013-01-10 10:53:00,29.0,19.0,-100.00,East,97,14.0,39.0,66,0.00,,,-99.99,414.000000,,2013-01-10 18:53:00,
2013-01-10 11:00:00,32.0,19.0,-100.00,WNW,287,6.0,30.0,57,0.00,,,-99.99,607.000000,,2013-01-10 19:00:00,
2013-01-10 11:33:00,32.0,19.0,-100.00,WNW,287,6.0,30.0,57,0.00,,,-99.99,607.000000,,2013-01-10 19:33:00,
2013-01-10 11:43:00,32.0,19.0,-100.00,WNW,287,6.0,30.0,57,0.00,,,-99.99,607.000000,,2013-01-10 19:43:00,
2013-01-10 11:53:00,32.0,19.0,-100.00,WNW,287,6.0,30.0,57,0.00,,,-99.99,607.000000,,2013-01-10 19:53:00,
2013-01-10 12:00:00,31.0,16.0,-100.00,South,170,11.0,27.0,53,0.00,,,-99.99,673.000000,,2013-01-10 20:00:00,
2013-01-10 12:24:00,31.0,16.0,-100.00,South,170,11.0,27.0,53,0.00,,,-99.99,673.000000,,2013-01-10 20:24:00,
2013-01-10 12:33:00,31.0,16.0,-100.00,South,170,11.0,27.0,53,0.00,,,-99.99,673.000000,,2013-01-10 20:33:00,
2013-01-10 12:43:00,31.0,16.0,-100.00,South,170,11.0,27.0,53,0.00,,,-99.99,673.000000,,2013-01-10 20:43:00,
2013-01-10 12:53:00,31.0,16.0,-100.00,South,170,11.0,27.0,53,0.00,,,-99.99,673.000000,,2013-01-10 20:53:00,
2013-01-10 13:00:00,32.0,16.0,-100.00,West,275,13.0,24.0,51,0.00,,,-99.99,678.000000,,2013-01-10 21:00:00,
2013-01-10 13:33:00,32.0,16.0,-100.00,West,275,13.0,24.0,51,0.00,,,-99.99,678.000000,,2013-01-10 21:33:00,
2013-01-10 13:43:00,32.0,16.0,-100.00,West,275,13.0,24.0,51,0.00,,,-99.99,678.000000,,2013-01-10 21:43:00,
2013-01-10 13:53:00,32.0,16.0,-100.00,West,275,13.0,24.0,51,0.00,,,-99.99,678.000000,,2013-01-10 21:53:00,
2013-01-10 14:00:00,30.0,15.0,-100.00,WNW,292,10.0,31.0,54,0.00,,,-99.99,538.000000,,2013-01-10 22:00:00,
2013-01-10 14:27:00,30.0,15.0,-100.00,WNW,292,10.0,31.0,54,0.00,,,-99.99,538.000000,,2013-01-10 22:27:00,
2013-01-10 14:34:00,30.0,15.0,-100.00,WNW,292,10.0,31.0,54,0.00,,,-99.99,538.000000,,2013-01-10 22:34:00,
2013-01-10 14:44:00,30.0,15.0,-100.00,WNW,292,10.0,31.0,54,0.00,,,-99.99,538.000000,,2013-01-10 22:44:00,
2013-01-10 15:00:00,25.0,16.0,-100.00,West,275,13.0,28.0,69,0.00,,,-99.99,171.000000,,2013-01-10 23:00:00,
2013-01-10 15:33:00,25.0,16.0,-100.00,West,275,13.0,28.0,69,0.00,,,-99.99,171.000000,,2013-01-10 23:33:00,
2013-01-10 15:43:00,25.0,16.0,-100.00,West,275,13.0,28.0,69,0.00,,,-99.99,171.000000,,2013-01-10 23:43:00,
2013-01-10 15:53:00,25.0,16.0,-100.00,West,275,13.0,28.0,69,0.00,,,-99.99,171.000000,,2013-01-10 23:53:00,
2013-01-10 16:00:00,25.0,17.0,-100.00,WNW,302,6.0,25.0,70,0.00,,,0.00,97.000000,,2013-01-11 00:00:00,
2013-01-10 16:33:00,25.0,17.0,-100.00,WNW,302,6.0,25.0,70,0.00,,,0.00,97.000000,,2013-01-11 00:33:00,
2013-01-10 16:43:00,25.0,17.0,-100.00,WNW,302,6.0,25.0,70,0.00,,,0.00,97.000000,,2013-01-11 00:43:00,
2013-01-10 16:53:00,25.0,17.0,-100.00,WNW,302,6.0,25.0,70,0.00,,,0.00,97.000000,,2013-01-11 00:53:00,
2013-01-10 17:00:00,23.0,13.0,-100.00,West,279,9.0,31.0,66,0.00,,,0.00,16.000000,,2013-01-11 01:00:00,
2013-01-10 17:34:00,23.0,13.0,-100.00,West,279,9.0,31.0,66,0.00,,,0.00,16.000000,,2013-01-11 01:34:00,
2013-01-10 17:43:00,23.0,13.0,-100.00,West,279,9.0,31.0,66,0.00,,,0.00,16.000000,,2013-01-11 01:43:00,
2013-01-10 17:53:00,23.0,13.0,-100.00,West,279,9.0,31.0,66,0.00,,,0.00,16.000000,,2013-01-11 01:53:00,
2013-01-10 18:00:00,23.0,14.0,-100.00,West,273,12.0,29.0,68,0.00,,,0.00,0.000000,,2013-01-11 02:00:00,
2013-01-10 18:24:00,23.0,14.0,-100.00,West,273,12.0,29.0,68,0.00,,,0.00,0.000000,,2013-01-11 02:24:00,
2013-01-10 18:33:00,23.0,14.0,-100.00,West,273,12.0,29.0,68,0.00,,,0.00,0.000000,,2013-01-11 02:33:00,
2013-01-10 18:43:00,23.0,14.0,-100.00,West,273,12.0,29.0,68,0.00,,,0.00,0.000000,,2013-01-11 02:43:00,
2013-01-10 19:00:00,23.0,15.0,-100.00,West,271,10.0,26.0,72,0.00,,,0.00,0.000000,,2013-01-11 03:00:00,
2013-01-10 19:33:00,23.0,15.0,-100.00,West,271,10.0,26.0,72,0.00,,,0.00,0.000000,,2013-01-11 03:33:00,
2013-01-10 19:43:00,23.0,15.0,-100.00,West,271,10.0,26.0,72,0.00,,,0.00,0.000000,,2013-01-11 03:43:00,
2013-01-10 19:53:00,23.0,15.0,-100.00,West,271,10.0,26.0,72,0.00,,,0.00,0.000000,,2013-01-11 03:53:00,
2013-01-10 20:00:00,22.0,18.0,-100.00,West,269,13.0,27.0,84,0.00,,,0.00,0.000000,,2013-01-11 04:00:00,
2013-01-10 20:33:00,22.0,18.0,-100.00,West,269,13.0,27.0,84,0.00,,,0.00,0.000000,,2013-01-11 04:33:00,
2013-01-10 20:43:00,22.0,18.0,-100.00,West,269,13.0,27.0,84,0.00,,,0.00,0.000000,,2013-01-11 04:43:00,
2013-01-10 20:53:00,22.0,18.0,-100.00,West,269,13.0,27.0,84,0.00,,,0.00,0.000000,,2013-01-11 04:53:00,
2013-01-10 21:00:00,22.0,16.0,-100.00,West,264,11.0,33.0,77,0.00,,,0.00,0.000000,,2013-01-11 05:00:00,
2013-01-10 21:33:00,22.0,16.0,-100.00,West,264,11.0,33.0,77,0.00,,,0.00,0.000000,,2013-01-11 05:33:00,
2013-01-10 21:43:00,22.0,16.0,-100.00,West,264,11.0,33.0,77,0.00,,,0.00,0.000000,,2013-01-11 05:43:00,
2013-01-10 21:52:00,22.0,16.0,-100.00,West,264,11.0,33.0,77,0.00,,,0.00,0.000000,,2013-01-11 05:52:00,
2013-01-10 22:00:00,22.0,18.0,-100.00,WNW,300,4.0,21.0,84,0.00,,,0.00,0.000000,,2013-01-11 06:00:00,
2013-01-10 22:32:00,22.0,18.0,-100.00,WNW,300,4.0,21.0,84,0.00,,,0.00,0.000000,,2013-01-11 06:32:00,
2013-01-10 22:42:00,22.0,18.0,-100.00,WNW,300,4.0,21.0,84,0.00,,,0.00,0.000000,,2013-01-11 06:42:00,
2013-01-10 22:52:00,22.0,18.0,-100.00,WNW,300,4.0,21.0,84,0.00,,,0.00,0.000000,,2013-01-11 06:52:00,
2013-01-10 23:00:00,21.0,17.0,-100.00,WNW,283,9.0,22.0,86,0.00,,,0.00,0.000000,,2013-01-11 07:00:00,
2013-01-10 23:22:00,21.0,17.0,-100.00,WNW,283,9.0,22.0,86,0.00,,,0.00,0.000000,,2013-01-11 07:22:00,
2013-01-10 23:32:00,21.0,17.0,-100.00,WNW,283,9.0,22.0,86,0.00,,,0.00,0.000000,,2013-01-11 07:32:00,
2013-01-10 23:42:00,21.0,17.0,-100.00,WNW,283,9.0,22.0,86,0.00,,,0.00,0.000000,,2013-01-11 07:42:00,
2013-01-10 23:52:00,21.0,17.0,-100.00,WNW,283,9.0,22.0,86,0.00,,,0.00,0.000000,,2013-01-11 07:52:00,